Regional Weather Roundup
Issued by NWS Charleston, WV

Home | Current Version | Previous Version | Graphics & Text | Print | Product List | Glossary On
Versions: 1 2 3 4 5 6 7 8 9 10 11 12 13 14 15 16 17 18 19 20 21 22 23 24 25 26 27
000
ASUS41 KRLX 062110
RWRRLX
West Virginia Regional Weather Roundup
National Weather Service Charleston WV
500 PM EDT FRI MAY 06 2016

Note: "fair" indicates few or no clouds below 12,000 feet with no
significant weather and/or obstructions to visibility.

WVZ003-062200-
Northern Panhandle of West Virginia

CITY           SKY/WX    TMP DP  RH WIND       PRES   REMARKS
WHEELING         N/A     67  32  27 N24G36    29.75S
$$

WVZ009-062200-
Northwest West Virginia

CITY           SKY/WX    TMP DP  RH WIND       PRES   REMARKS
PARKERSBURG      N/A     67  39  35 NW15G23   29.80F
$$

WVZ006-062200-
Western West Virginia

CITY           SKY/WX    TMP DP  RH WIND       PRES   REMARKS
HUNTINGTON     PTSUNNY   68  39  34 N13G22    29.83F
$$

WVZ015-062200-
West Central West Virginia

CITY           SKY/WX    TMP DP  RH WIND       PRES   REMARKS
CHARLESTON     PTSUNNY   65  38  36 NW12G28   29.81S
$$

WVZ022-031-062200-
North Central West Virginia

CITY           SKY/WX    TMP DP  RH WIND       PRES   REMARKS
CLARKSBURG     CLOUDY    62  36  37 N9        29.73S
MORGANTOWN     CLOUDY    60  36  40 N14G28    29.75R
$$

WVZ025-035-042-045-062200-
Southern West Virginia

CITY           SKY/WX    TMP DP  RH WIND       PRES   REMARKS
BECKLEY        LGT RAIN  53  43  68 NW7G21    29.82R
LOGAN          NOT AVBL
BLUEFIELD      PTSUNNY   51  45  79 NW10      29.84S
LEWISBURG      CLOUDY    56  40  53 N7        29.78F
$$

WVZ047-062200-
Northern Mountains of West Virginia

CITY           SKY/WX    TMP DP  RH WIND       PRES   REMARKS
ELKINS         LGT RAIN  54  41  61 N10       29.76R
$$

WVZ052-062200-
Eastern Panhandle of West Virginia

CITY           SKY/WX    TMP DP  RH WIND       PRES   REMARKS
MARTINSBURG    LGT RAIN  52  47  83 NW17G23   29.69F
PETERSBURG     LGT RAIN  55  52  90 CALM      29.76R
$$




USA.gov is the U.S. government's official web portal to all federal, state and local government web resources and services.